New Orleans Lakefront, LA

4:33 AM CST on November 12, 2019 (GMT -0600)
Lakefront

Weather History for KNEW - October, 2019

Change the Weather History Date:

Wednesday, October 23, 2019

  Actual Average Record
Temperature  
Mean Temperature 64 °F 69 °F  
Max Temperature 74 °F 78 °F 87 °F (1995)
Min Temperature 53 °F 60 °F 44 °F (1964)
Degree Days  
Heating Degree Days 1 1  
Month to date heating degree days 1 10  
Since 1 July heating degree days 1 10  
Cooling Degree Days 0 5  
Month to date cooling degree days 303 184  
Year to date cooling degree days 3560 2873  
Growing Degree Days 16 (Base 50)    
Moisture  
Dew Point 46 °F    
Average Humidity 51    
Maximum Humidity 72    
Minimum Humidity 29    
Precipitation  
Precipitation 0.00 in 0.12 in 1.44 in (1980)
Month to date precipitation 3.22 2.58  
Year to date precipitation 50.17 51.76  
Snow  
Snow 0.00 in - - ()
Month to date snowfall 0.0  
Since 1 July snowfall 0.0  
Since 1 September snowfall 0.0  
Snow Depth 0.00 in    
Sea Level Pressure  
Sea Level Pressure 30.14 in    
Wind  
Wind Speed 6 mph (East)    
Max Wind Speed 18 mph    
Max Gust Speed 23 mph    
Visibility 10 miles    
Events      
T = Trace of Precipitation, MM = Missing Value Source: NWS Daily Summary

Daily Weather History Graph

Daily Weather History Graph

Search for Another Location

Airport or City:

Astronomy

Oct. 23, 2019 Rise Set
Actual Time 7:07 AM CDT 6:21 PM CDT
Civil Twilight 6:42 AM CDT 6:45 PM CDT
Nautical Twilight 6:14 AM CDT 7:13 PM CDT
Astronomical Twilight 5:47 AM CDT 7:41 PM CDT
Moon 1:57 AM CDT (10/23) 3:43 PM CDT (10/23)
Length of Visible Light 12h 02m
Length of Day
11h 13m
Waning Crescent, 26% of the Moon is Illuminated
Oct 23
Waning Crescent
Oct 27
New
Nov 4
First Quarter
Nov 12
Full
Nov 19
Last Quarter

Hourly Weather History & Observations

Time (CDT) Temp. Dew Point Humidity Pressure Visibility Wind Dir Wind Speed Gust Speed Precip Events Conditions
12:53 AM 66.9 °F 43.0 °F 42% 30.14 in 10.0 mi NNE 11.5 mph - N/A   Clear
1:53 AM 66.9 °F 42.1 °F 40% 30.14 in 10.0 mi NE 11.5 mph - N/A   Clear
2:53 AM 66.0 °F 46.0 °F 48% 30.13 in 10.0 mi NE 15.0 mph - N/A   Clear
3:53 AM 64.9 °F 46.0 °F 50% 30.13 in 10.0 mi ENE 13.8 mph - N/A   Clear
4:53 AM 63.0 °F 46.9 °F 56% 30.14 in 10.0 mi ENE 11.5 mph - N/A   Clear
5:53 AM 63.0 °F 48.9 °F 60% 30.15 in 10.0 mi East 10.4 mph - N/A   Clear
6:53 AM 62.1 °F 48.0 °F 60% 30.15 in 10.0 mi ENE 12.7 mph - N/A   Clear
7:53 AM 62.1 °F 48.0 °F 60% 30.17 in 10.0 mi ENE 9.2 mph - N/A   Clear
8:53 AM 64.9 °F 46.9 °F 52% 30.18 in 10.0 mi NE 13.8 mph - N/A   Clear
9:53 AM 66.0 °F 45.0 °F 47% 30.19 in 10.0 mi ENE 11.5 mph - N/A   Clear
10:53 AM 69.1 °F 39.9 °F 35% 30.19 in - East 15.0 mph - N/A   Clear
11:53 AM - - N/A% 30.19 in 10.0 mi East 13.8 mph - N/A   Unknown
12:53 PM - - N/A% 30.17 in 10.0 mi East 12.7 mph - N/A   Clear
1:53 PM 71.1 °F 37.0 °F 29% 30.13 in 10.0 mi North - - N/A   Clear
2:53 PM 71.1 °F 43.0 °F 36% 30.12 in 10.0 mi East 10.4 mph - N/A   Clear
3:53 PM 71.1 °F 42.1 °F 35% 30.11 in 10.0 mi East 11.5 mph - N/A   Clear
4:53 PM 69.1 °F 43.0 °F 39% 30.11 in 10.0 mi ESE 12.7 mph - N/A   Clear
5:53 PM 68.0 °F 45.0 °F 43% 30.11 in 10.0 mi ESE 10.4 mph - N/A   Clear
6:53 PM 64.9 °F 46.9 °F 52% 30.11 in 10.0 mi SE 8.1 mph - N/A   Clear
7:53 PM 64.0 °F 48.9 °F 58% 30.12 in 10.0 mi SE 6.9 mph - N/A   Clear
8:53 PM 63.0 °F 50.0 °F 63% 30.12 in 10.0 mi SE 5.8 mph - N/A   Clear
9:53 PM 62.1 °F 52.0 °F 70% 30.12 in 10.0 mi ESE 3.5 mph - N/A   Clear
10:53 PM 61.0 °F 52.0 °F 72% 30.12 in 10.0 mi SE 3.5 mph - N/A   Clear
11:53 PM 64.0 °F 51.1 °F 63% 30.11 in 10.0 mi East 5.8 mph - N/A   Clear